STARLINK-34139 (63975 NORAD) Tracking and Keplerian Element Data

This shows tracking and keplerian element data for the satellite.

Feedback or suggestion? Click here.




ElementValue
Catalog63975
NameSTARLINK-34139
Epoch Orbit3511
Epoch Day354.10643687
Epoch Year2025
RAAN262.3166
Inclination43.0012
Eccentricity0.0001142
Argument of Perigee269.8906
Mean Anonmoly90.1815
Mean Motion15.27584387
Decay Rate8.983E-05
L11 63975U 25099Z 25354.10643687 .00008983 00000+0 33553-3 0 9998
L22 63975 43.0012 262.3166 0001142 269.8906 90.1815 15.27584387 35110



Live tracking and technical data element details for STARLINK-34139 (NORAD 63975). STARLINK-34139 can be tracked NOW for your location showing map with azimuth and elevation plus other details from your city location.







IsCatalogInMostPopularTable: catalog: 63975, numindb: 2
Update: records affected: 1



GetName: 63975 STARLINK-34139

Hit Count: updated at: Sun, 08 Feb 2026 09:01:55 GMT